Regional Weather Roundup
Issued by NWS Cleveland, OH

Home | Current Version | Previous Version | Text Only | Print | Product List | Glossary Off
Versions: 1 2 3 4 5 6 7 8 9 10 11 12 13 14 15 16 17 18 19 20 21 22 23 24 25 26 27 28 29 30 31 32 33 34 35 36 37 38 39 40 41 42 43 44 45 46 47 48 49 50

868
ASUS41 KCLE 062310
RWRCLE
OHIO REGIONAL WEATHER ROUNDUP
NATIONAL WEATHER SERVICE CLEVELAND, OH
600 PM EST SAT FEB 06 2016

NOTE: "FAIR" INDICATES FEW OR NO CLOUDS BELOW 12,000 FEET WITH NO
SIGNIFICANT WEATHER AND/OR OBSTRUCTIONS TO VISIBILITY.

OHZ001>008-015>018-024>027-034-035-043-044-070000-
   NORTHWEST OHIO

CITY           SKY/WX    TMP DP  RH WIND       PRES   REMARKS
DEFIANCE       CLEAR     36  23  59 SW7       30.20F
FINDLAY        CLEAR     34  22  61 SW8       30.20S WCI  27
TOLEDO EXPRESS CLEAR     34  21  59 SW8       30.19S WCI  27
TOLEDO EXEC    CLEAR     34  23  64 SW7       30.21S WCI  28
LIMA           CLEAR     36  21  54 SW8       30.20F
$$

OHZ009>014-019>023-028>033-038-089-070000-
   NORTHEAST OHIO

CITY           SKY/WX    TMP DP  RH WIND       PRES   REMARKS
CLE-HOPKINS    CLEAR     36  21  54 SW9       30.23S
CLE-LAKEFRONT  CLEAR     34  26  72 CALM      30.21S
CUY CO. ARPT   CLEAR     34  25  69 NW8       30.21S WCI  27
LORAIN-ELYRIA  CLEAR     34  22  61 SW8       30.21F WCI  27
ASHTABULA      CLEAR     34  22  61 NW3       30.20R
AKRON-CANTON   CLEAR     35  18  49 SW8       30.21R WCI  29
WOOSTER        CLEAR     35  20  54 W7        30.22R WCI  29
MANSFIELD      CLEAR     34  19  54 SW8       30.20S WCI  27
YOUNGSTOWN     PTCLDY    35  17  47 SW7       30.19S WCI  29
$$

OHZ042-051>053-060>062-070>072-077>081-070000-
  SOUTHWEST OHIO

CITY           SKY/WX    TMP DP  RH WIND       PRES   REMARKS
CINC-COVINGTON PTCLDY    43  22  43 W7        30.24S
CINC-LUNKEN    CLEAR     42  23  46 W7        30.27R
HAMILTON       CLEAR     44  23  43 W5        30.26S
DAYTON         CLEAR     35  23  61 W8        30.24S WCI  29
WRIGHT-PAT AFB CLEAR     38  19  45 SW6       30.24R
DAYTON GENERAL CLEAR     42  20  41 W5        30.23S
WILMINGTON     CLEAR     39  22  50 W6        30.24S
$$

OHZ036-037-039>041-045>050-054>059-063>069-073>076-082>088-070000-
  CENTRAL AND SOUTHEAST OHIO

CITY           SKY/WX    TMP DP  RH WIND       PRES   REMARKS
COLUMBUS       PTCLDY    39  15  37 SW6       30.24S
OSU AIRPORT    CLEAR     39  17  41 SW7       30.23S
BOLTON FIELD   NOT AVBL
RICKENBACK AFB CLEAR     38  19  45 W5        30.25R
NEWARK         CLEAR     38  16  40 SW6       30.24R
MARION         CLEAR     35  18  49 SW8       30.22F WCI  29
LANCASTER      CLEAR     38  18  44 W5        30.25S
ZANESVILLE     CLEAR     40  14  34 W6        30.24R
NEW PHILLY     CLEAR     39  15  37 SW3       30.23S
$$




USA.gov is the U.S. government's official web portal to all federal, state and local government web resources and services.